GW2167 Weather Reports


Display with metric or nautical units.
time (UTC)temp
F
wind
direction
speed
MPH
gust
MPH
rain 1hr
in
rain 24hr
in
rain mn
in
humidity
%
barometer
mb
20260504210004 52 86 1.0 2.0 0.00 0.00 0.81 79 1005.0
20260504205903 52 92 1.0 2.0 0.00 0.00 0.81 79 1005.1
20260504205816 52 95 1.0 2.0 0.00 0.00 0.81 79 1005.1
20260504205803 52 96 1.0 2.0 0.00 0.00 0.81 79 1005.1
20260504205703 52 99 1.0 2.0 0.00 0.00 0.81 78 1005.3
20260504205503 52 102 1.0 2.0 0.00 0.00 0.81 79 1005.0
20260504205418 52 102 1.0 2.0 0.00 0.00 0.81 79 1005.0
20260504205403 52 102 1.0 2.0 0.00 0.00 0.81 79 1005.3
20260504205304 52 101 1.0 2.0 0.00 0.00 0.81 79 1005.3
20260504205103 52 98 1.0 2.0 0.00 0.00 0.81 79 1005.0
20260504205003 53 96 1.0 2.0 0.00 0.00 0.81 78 1005.0
20260504204903 53 92 1.0 2.0 0.00 0.00 0.81 77 1005.3
20260504204803 53 90 1.0 2.0 0.00 0.00 0.81 77 1005.1
20260504204703 53 88 1.0 2.0 0.00 0.00 0.81 77 1005.0
20260504204603 53 86 1.0 2.0 0.00 0.00 0.81 77 1004.9
20260504204503 53 84 1.0 2.0 0.00 0.00 0.81 77 1005.0
20260504204403 53 82 1.0 2.0 0.00 0.00 0.81 77 1005.3
20260504204303 53 78 1.0 2.0 0.00 0.00 0.81 78 1005.1
20260504204203 53 75 1.0 2.0 0.00 0.00 0.81 78 1004.9
20260504204103 53 73 1.0 2.0 0.00 0.00 0.81 77 1005.0
20260504204003 53 71 1.0 2.0 0.00 0.00 0.81 78 1004.9
20260504203903 53 70 1.0 2.0 0.00 0.00 0.81 77 1005.1
20260504203816 53 67 1.0 2.0 0.00 0.00 0.81 77 1005.1
20260504203803 53 66 1.0 2.0 0.00 0.00 0.81 77 1005.1
20260504203703 53 63 1.0 2.0 0.00 0.00 0.81 77 1005.0
20260504203503 53 60 1.0 2.0 0.00 0.00 0.81 77 1005.1
20260504203418 53 61 1.0 2.0 0.00 0.00 0.81 77 1005.1
20260504203403 53 61 1.0 2.0 0.00 0.00 0.81 77 1004.9
20260504203303 53 63 1.0 2.0 0.00 0.00 0.81 76 1005.0
20260504203103 53 69 1.0 2.0 0.00 0.00 0.81 76 1005.1
20260504203003 53 73 1.0 2.0 0.00 0.00 0.81 75 1005.0
20260504202903 53 76 1.0 2.0 0.00 0.00 0.81 74 1005.3
20260504202803 53 82 1.0 2.0 0.00 0.00 0.81 74 1005.1
20260504202703 53 87 1.0 2.0 0.00 0.00 0.81 74 1005.1
20260504202603 53 91 1.0 2.0 0.00 0.00 0.81 74 1005.4
20260504202517 53 94 1.0 2.0 0.00 0.00 0.81 74 1005.4
20260504202503 53 95 1.0 2.0 0.00 0.00 0.81 74 1005.0
20260504202403 54 98 1.0 2.0 0.00 0.00 0.81 74 1004.9
20260504202203 54 104 1.0 2.0 0.00 0.00 0.81 73 1005.3
20260504202103 54 105 1.0 2.0 0.00 0.00 0.81 73 1005.0
20260504202003 54 107 1.0 2.0 0.00 0.00 0.81 73 1005.1
20260504201903 54 108 1.0 2.0 0.00 0.00 0.81 73 1005.1
20260504201803 54 109 1.0 2.0 0.00 0.00 0.81 73 1005.0
20260504201703 54 107 1.0 2.0 0.00 0.00 0.81 73 1005.1
20260504201603 54 105 1.0 2.0 0.00 0.00 0.81 73 1005.0
20260504201503 54 102 1.0 2.0 0.00 0.00 0.81 73 1005.3
20260504201403 54 99 1.0 2.0 0.00 0.00 0.81 73 1005.0
20260504201303 54 94 1.0 2.0 0.00 0.00 0.81 73 1004.8
20260504201203 54 86 1.0 2.0 0.00 0.00 0.81 73 1005.1
20260504201103 54 75 2.0 2.0 0.00 0.00 0.81 73 1005.4
20260504201016 54 67 2.0 2.0 0.00 0.00 0.81 73 1005.4
20260504201003 54 65 2.0 2.0 0.00 0.00 0.81 73 1005.1
20260504200903 54 53 2.0 2.0 0.00 0.00 0.81 73 1005.0
20260504200703 54 31 2.0 2.0 0.00 0.00 0.81 72 1005.1
20260504200603 54 20 2.0 2.0 0.00 0.00 0.81 72 1005.0
20260504200503 54 12 2.0 3.0 0.00 0.00 0.81 72 1005.3
20260504200424 54 6 2.0 3.0 0.00 0.00 0.81 73 1005.3
20260504200403 54 4 2.0 3.0 0.00 0.00 0.81 73 1005.0
20260504200303 54 359 2.0 3.0 0.00 0.00 0.81 73 1005.0
20260504200217 54 358 2.0 3.0 0.00 0.00 0.81 73 1005.0
20260504195903 55 2 2.0 3.0 0.00 0.00 0.81 73 1004.9
20260504195803 55 1 2.0 3.0 0.00 0.00 0.81 73 1004.9
20260504195703 55 356 2.0 3.0 0.00 0.00 0.81 72 1004.9
20260504195603 55 352 2.0 3.0 0.00 0.00 0.81 72 1005.1
20260504195503 55 351 2.0 3.0 0.00 0.00 0.81 72 1005.3
20260504195403 55 351 2.0 3.0 0.00 0.00 0.81 73 1004.9
20260504195304 55 350 2.0 3.0 0.00 0.00 0.81 73 1005.0
20260504195203 55 349 2.0 3.0 0.00 0.00 0.81 73 1004.9
20260504195103 55 348 2.0 3.0 0.00 0.00 0.81 73 1005.0
20260504195003 55 345 2.0 3.0 0.00 0.00 0.81 73 1005.1
20260504194919 55 345 2.0 3.0 0.00 0.00 0.81 74 1005.1
20260504194903 55 345 2.0 3.0 0.00 0.00 0.81 74 1004.9
20260504194803 55 345 2.0 3.0 0.00 0.00 0.81 73 1004.9
20260504194603 55 352 2.0 3.0 0.00 0.00 0.81 74 1005.0
20260504194517 55 353 2.0 3.0 0.00 0.00 0.81 74 1005.0
20260504194503 55 353 2.0 3.0 0.00 0.00 0.81 74 1005.3
20260504194416 55 353 2.0 3.0 0.00 0.00 0.81 73 1005.3
20260504194403 55 353 2.0 3.0 0.00 0.00 0.81 73 1004.9
20260504194103 55 352 2.0 3.0 0.00 0.00 0.81 73 1004.9
20260504194003 55 350 1.0 3.0 0.00 0.00 0.81 73 1005.0
20260504193903 55 353 1.0 3.0 0.00 0.00 0.81 73 1005.0
20260504193803 56 357 1.0 2.0 0.00 0.00 0.81 72 1005.0
20260504193703 56 2 1.0 2.0 0.00 0.00 0.81 72 1005.3
20260504193603 56 7 1.0 2.0 0.00 0.00 0.81 70 1005.3
20260504193503 56 13 1.0 2.0 0.00 0.00 0.81 71 1005.1
20260504193403 56 18 1.0 2.0 0.00 0.00 0.81 70 1005.0
20260504193303 56 22 1.0 2.0 0.00 0.00 0.81 70 1005.1
20260504193203 56 27 1.0 2.0 0.00 0.00 0.81 70 1005.1
20260504193103 56 32 1.0 2.0 0.00 0.00 0.81 69 1005.0
20260504193003 56 40 1.0 2.0 0.00 0.00 0.81 69 1005.3
20260504192903 56 41 1.0 2.0 0.00 0.00 0.81 68 1005.0
20260504192803 56 36 1.0 2.0 0.00 0.00 0.81 70 1005.0
20260504192703 56 33 1.0 2.0 0.00 0.00 0.81 68 1005.0
20260504192619 56 31 1.0 2.0 0.00 0.00 0.81 68 1005.0
20260504192603 57 31 1.0 2.0 0.00 0.00 0.81 68 1005.3
20260504192503 57 26 1.0 2.0 0.00 0.00 0.81 67 1005.1
20260504192304 57 21 1.0 2.0 0.00 0.00 0.81 68 1005.1
20260504192203 57 20 1.0 2.0 0.00 0.00 0.81 68 1005.3
20260504192103 57 20 1.0 2.0 0.00 0.00 0.81 68 1005.3
20260504192018 57 19 1.0 2.0 0.00 0.00 0.81 68 1005.3
20260504192003 57 19 1.0 2.0 0.00 0.00 0.81 68 1005.0
20260504191903 57 19 1.0 2.0 0.00 0.00 0.81 68 1005.0
20260504191820 57 23 2.0 2.0 0.00 0.00 0.81 67 1005.0
20260504191503 57 41 2.0 2.0 0.00 0.00 0.81 67 1005.3
20260504191403 57 47 2.0 2.0 0.00 0.00 0.81 67 1005.0
20260504191303 57 52 2.0 2.0 0.00 0.00 0.81 68 1005.1
20260504191219 57 55 2.0 2.0 0.00 0.00 0.81 68 1005.1
20260504191203 57 57 2.0 2.0 0.00 0.00 0.81 68 1005.1
20260504191103 58 62 2.0 2.0 0.00 0.00 0.81 67 1005.3
20260504190903 58 73 2.0 2.0 0.00 0.00 0.81 65 1005.1
20260504190803 58 76 2.0 2.0 0.00 0.00 0.81 65 1005.3
20260504190703 58 79 2.0 2.0 0.00 0.00 0.81 64 1005.4
20260504190603 58 80 2.0 2.0 0.00 0.00 0.81 64 1005.4
20260504190503 58 82 2.0 2.0 0.00 0.00 0.81 64 1005.1
20260504190403 58 83 2.0 2.0 0.00 0.00 0.81 64 1005.4
20260504190318 58 84 2.0 2.0 0.00 0.00 0.81 63 1005.4
20260504190303 58 84 2.0 2.0 0.00 0.00 0.81 63 1005.3
20260504190203 58 86 2.0 2.0 0.00 0.00 0.81 63 1005.1
20260504190003 58 88 1.0 2.0 0.00 0.00 0.81 63 1005.0
20260504185903 58 88 1.0 2.0 0.00 0.00 0.81 64 1005.0
20260504185803 58 87 1.0 2.0 0.00 0.00 0.81 64 1005.4
20260504185703 58 86 1.0 2.0 0.00 0.00 0.81 64 1005.3
20260504185603 58 81 1.0 2.0 0.00 0.00 0.81 65 1005.1
20260504185503 59 75 1.0 2.0 0.00 0.00 0.81 65 1005.3
20260504185403 59 67 1.0 4.0 0.00 0.00 0.81 65 1005.1
20260504185316 59 46 1.0 4.0 0.00 0.00 0.81 65 1005.1
20260504185304 59 25 1.0 4.0 0.00 0.00 0.81 64 1005.3
20260504185203 59 333 1.0 5.0 0.00 0.00 0.81 64 1005.5
20260504185003 59 303 2.0 5.0 0.00 0.00 0.81 66 1005.5
20260504184903 59 300 2.0 5.0 0.00 0.00 0.81 64 1005.3
20260504184803 59 299 2.0 5.0 0.00 0.00 0.81 65 1005.4
20260504184703 59 298 2.0 5.0 0.00 0.00 0.81 64 1005.3
20260504184603 59 297 2.0 5.0 0.00 0.00 0.81 64 1005.1
20260504184503 59 295 2.0 5.0 0.00 0.00 0.81 64 1005.5
20260504184403 60 300 2.0 5.0 0.00 0.00 0.81 70 1005.3
20260504184303 60 305 2.0 5.0 0.00 0.00 0.81 70 1005.3
20260504184203 60 312 2.0 5.0 0.00 0.00 0.81 70 1005.4
20260504184103 60 327 2.0 5.0 0.00 0.00 0.81 70 1005.5
20260504184003 60 3 1.0 5.0 0.00 0.00 0.81 70 1005.5
20260504183903 60 45 1.0 3.0 0.00 0.00 0.81 65 1005.3
20260504183803 60 62 1.0 2.0 0.00 0.00 0.81 61 1005.4
20260504183703 60 73 1.0 2.0 0.00 0.00 0.81 61 1005.1
20260504183603 60 78 1.0 2.0 0.00 0.00 0.81 61 1005.4
20260504183503 60 80 1.0 2.0 0.00 0.00 0.81 60 1005.3
20260504183403 60 82 1.0 2.0 0.00 0.00 0.81 59 1005.1
20260504183303 60 82 1.0 2.0 0.00 0.00 0.81 59 1005.0
20260504183203 61 79 1.0 2.0 0.00 0.00 0.81 59 1005.1
20260504183103 61 74 1.0 2.0 0.00 0.00 0.81 58 1005.0
20260504183016 61 69 1.0 2.0 0.00 0.00 0.81 58 1005.0
20260504183003 61 68 1.0 2.0 0.00 0.00 0.81 58 1005.4
20260504182919 61 64 1.0 2.0 0.00 0.00 0.81 58 1005.4
20260504182903 61 63 1.0 2.0 0.00 0.00 0.81 58 1005.1
20260504182603 61 55 1.0 2.0 0.00 0.00 0.81 58 1005.1
20260504182517 61 54 1.0 2.0 0.00 0.00 0.81 58 1005.1
20260504182503 61 54 1.0 2.0 0.00 0.00 0.81 58 1005.4
20260504182403 61 54 1.0 2.0 0.00 0.00 0.81 58 1005.3
20260504182203 62 51 1.0 2.0 0.00 0.00 0.81 58 1005.3
20260504182103 62 52 1.0 2.0 0.00 0.00 0.81 58 1005.4
20260504182003 62 50 1.0 2.0 0.00 0.00 0.81 58 1005.3
20260504181903 62 50 0.0 2.0 0.00 0.00 0.81 57 1005.4
20260504181803 62 51 0.0 2.0 0.00 0.00 0.81 57 1005.3
20260504181703 62 55 0.0 1.0 0.00 0.00 0.81 57 1005.4
20260504181603 62 72 0.0 1.0 0.00 0.00 0.81 57 1005.3
20260504181519 63 92 0.0 1.0 0.00 0.00 0.81 57 1005.3
20260504181503 63 95 0.0 1.0 0.00 0.00 0.81 57 1005.4
20260504181403 63 99 0.0 1.0 0.00 0.00 0.81 56 1005.4
20260504181103 63 99 0.0 1.0 0.00 0.00 0.81 55 1005.3
20260504181003 64 99 0.0 1.0 0.00 0.00 0.81 55 1005.4
20260504180918 64 99 0.0 1.0 0.00 0.00 0.81 55 1005.4
20260504180903 64 100 0.0 1.0 0.00 0.00 0.81 55 1005.5
20260504180803 64 101 0.0 1.0 0.00 0.00 0.81 53 1005.3
20260504180618 64 106 0.0 1.0 0.00 0.00 0.81 53 1005.3
20260504180603 64 107 0.0 1.0 0.00 0.00 0.81 54 1005.1
20260504180503 64 114 0.0 2.0 0.00 0.00 0.81 53 1005.1
20260504180303 64 118 0.0 2.0 0.00 0.00 0.81 53 1005.1
20260504180203 65 119 0.0 2.0 0.00 0.00 0.81 53 1005.3
20260504180119 65 119 0.0 2.0 0.00 0.00 0.81 53 1005.3
20260504180103 65 120 0.0 2.0 0.00 0.00 0.81 53 1005.4
20260504180003 65 121 0.0 2.0 0.00 0.00 0.81 53 1005.5
20260504175803 65 125 0.0 2.0 0.00 0.00 0.81 52 1005.4
20260504175703 66 127 0.0 2.0 0.00 0.00 0.81 51 1005.1
20260504175616 66 129 0.0 2.0 0.00 0.00 0.81 49 1005.1
20260504175603 66 130 0.0 2.0 0.00 0.00 0.81 49 1005.5
20260504175503 66 131 0.0 2.0 0.00 0.00 0.81 48 1005.1
20260504175304 67 136 0.0 2.0 0.00 0.00 0.81 47 1005.4
20260504175203 67 139 1.0 2.0 0.00 0.00 0.81 47 1005.3
20260504175103 67 141 1.0 2.0 0.00 0.00 0.81 46 1005.4
20260504175020 67 145 1.0 2.0 0.00 0.00 0.81 46 1005.4
20260504175003 67 145 1.0 2.0 0.00 0.00 0.81 46 1005.1
20260504174903 68 146 1.0 2.0 0.00 0.00 0.81 46 1005.1
20260504174703 68 157 1.0 2.0 0.00 0.00 0.81 45 1005.3
20260504174603 68 164 1.0 3.0 0.00 0.00 0.81 45 1005.4
20260504174503 68 171 1.0 3.0 0.00 0.00 0.81 44 1005.3
20260504174403 68 177 1.0 3.0 0.00 0.00 0.81 44 1005.5
20260504174303 69 186 1.0 3.0 0.00 0.00 0.81 43 1005.3
20260504174216 69 190 1.0 3.0 0.00 0.00 0.81 44 1005.3
20260504174203 69 191 1.0 3.0 0.00 0.00 0.81 44 1005.4
20260504174103 69 198 1.0 3.0 0.00 0.00 0.81 44 1005.4
20260504173903 70 207 1.0 3.0 0.00 0.00 0.81 42 1005.4
20260504173803 70 209 2.0 3.0 0.00 0.00 0.81 42 1005.5
20260504173703 70 210 2.0 3.0 0.00 0.00 0.81 42 1005.5
20260504173603 70 211 2.0 3.0 0.00 0.00 0.81 42 1005.5
20260504173403 71 204 2.0 3.0 0.00 0.00 0.81 40 1005.5
20260504173316 71 200 2.0 3.0 0.00 0.00 0.81 40 1005.5
20260504173303 71 200 2.0 4.0 0.00 0.00 0.81 41 1005.5
20260504173003 72 196 2.0 4.0 0.00 0.00 0.81 40 1005.5
20260504172903 72 196 2.0 4.0 0.00 0.00 0.81 40 1005.6
20260504172803 72 197 2.0 4.0 0.00 0.00 0.81 39 1005.6
20260504172703 72 198 2.0 4.0 0.00 0.00 0.81 39 1005.6
20260504172603 72 199 2.0 4.0 0.00 0.00 0.81 39 1005.5
20260504172503 72 207 2.0 8.0 0.00 0.00 0.81 38 1005.5
20260504172403 73 207 2.0 8.0 0.00 0.00 0.81 39 1005.6
20260504172318 73 210 2.0 8.0 0.00 0.00 0.81 38 1005.6
20260504172304 73 210 3.0 8.0 0.00 0.00 0.81 38 1005.5
20260504172203 73 207 3.0 8.0 0.00 0.00 0.81 38 1005.5
20260504172003 73 208 3.0 8.0 0.00 0.00 0.81 37 1005.5
20260504171903 73 206 3.0 8.0 0.00 0.00 0.81 38 1005.4
20260504171803 74 205 3.0 8.0 0.00 0.00 0.81 37 1005.6
20260504171703 74 206 3.0 8.0 0.00 0.00 0.81 37 1005.5
20260504171603 74 206 3.0 8.0 0.00 0.00 0.81 37 1005.5
20260504171503 74 205 3.0 8.0 0.00 0.00 0.81 35 1005.5
20260504171403 74 206 4.0 8.0 0.00 0.00 0.81 38 1005.5
20260504171304 74 203 3.0 8.0 0.00 0.00 0.81 36 1005.4
20260504171203 74 208 3.0 8.0 0.00 0.00 0.81 37 1005.5
20260504171103 74 210 3.0 8.0 0.00 0.00 0.81 37 1005.5
20260504171003 74 207 3.0 8.0 0.00 0.00 0.81 35 1005.5
20260504170903 75 207 3.0 8.0 0.00 0.00 0.81 35 1005.5
20260504170803 75 209 3.0 8.0 0.00 0.00 0.81 35 1005.5
20260504170703 75 210 3.0 8.0 0.00 0.00 0.81 35 1005.3
20260504170603 75 208 4.0 8.0 0.00 0.00 0.81 33 1005.5
20260504170503 75 205 3.0 8.0 0.00 0.00 0.81 32 1005.4
20260504170403 75 205 4.0 8.0 0.00 0.00 0.81 32 1005.3
20260504170303 75 207 3.0 8.0 0.00 0.00 0.81 32 1005.5
20260504170203 75 205 4.0 8.0 0.00 0.00 0.81 32 1005.5
20260504160403 77 194 5.0 13.0 0.00 0.00 0.81 30 1005.5
20260504160303 77 193 5.0 13.0 0.00 0.00 0.81 30 1005.5
20260504160203 77 193 5.0 13.0 0.00 0.00 0.81 30 1005.5
20260504160103 77 200 6.0 13.0 0.00 0.00 0.81 32 1005.6
20260504150903 77 174 7.0 15.0 0.00 0.00 0.81 30 1005.7